,,PA_Meas_PMT16A,,PR_Meas_QMR101_102,,RH_Meas_QMH101,,SR_Meas_QMS101,,TA_Meas_QMH101,,GenWind,,GenWind,
time,status,PA,status,PR,status,RH,status,SR,status,TA,status,DirAvg,status,SpdAvg,
2015-03-26, 07:42:04,VALID,919.523,VALID,0,VALID,88.2029,VALID,87.3497,VALID,21.0876,VALID,143,VALID,1.87422,
2015-03-26, 07:43:04,VALID,919.549,VALID,0,VALID,88.3249,VALID,90.8952,VALID,21.1266,VALID,115,VALID,0.436328,
2015-03-26, 07:44:04,VALID,919.542,VALID,0,VALID,87.6845,VALID,94.011,VALID,21.125,VALID,145,VALID,0.819141,
2015-03-26, 07:45:04,VALID,919.54,VALID,0,VALID,87.7608,VALID,96.697,VALID,21.1461,VALID,133,VALID,0.457812,
2015-03-26, 07:46:04,VALID,919.595,VALID,0,VALID,88.5765,VALID,97.2342,VALID,21.1852,VALID,132,VALID,0,
2015-03-26, 07:47:04,VALID,919.609,VALID,0,VALID,88.8433,VALID,97.0194,VALID,21.1657,VALID,118,VALID,0,
2015-03-26, 07:48:04,VALID,919.619,VALID,0,VALID,89.3769,VALID,97.2342,VALID,21.1836,VALID,142,VALID,0,
2015-03-26, 07:49:04,VALID,919.643,VALID,0,VALID,89.7352,VALID,97.8789,VALID,21.2047,VALID,149,VALID,0,
2015-03-26, 07:50:04,VALID,919.667,VALID,0,VALID,89.8115,VALID,97.1268,VALID,21.2437,VALID,149,VALID,0,
2015-03-26, 07:51:04,VALID,919.675,VALID,0,VALID,89.4303,VALID,95.6226,VALID,21.2632,VALID,143,VALID,0,
2015-03-26, 07:52:04,VALID,919.726,VALID,0,VALID,89.5904,VALID,94.4408,VALID,21.2632,VALID,130,VALID,0,
2015-03-26, 07:53:04,VALID,919.732,VALID,0,VALID,89.072,VALID,93.7961,VALID,21.2632,VALID,155,VALID,0,
2015-03-26, 07:54:04,VALID,919.735,VALID,0,VALID,88.7518,VALID,93.5812,VALID,21.2616,VALID,170,VALID,0.218359,
2015-03-26, 07:55:04,VALID,919.748,VALID,0,VALID,89.7276,VALID,91.4324,VALID,21.3217,VALID,108,VALID,0,
2015-03-26, 07:56:04,VALID,919.772,VALID,0,VALID,88.6222,VALID,88.639,VALID,21.3217,VALID,130,VALID,1.19687,
2015-03-26, 07:57:04,VALID,919.753,VALID,0,VALID,88.0428,VALID,86.3827,VALID,21.3217,VALID,102,VALID,0.817969,
2015-03-26, 07:58:04,VALID,919.773,VALID,0,VALID,88.363,VALID,85.6306,VALID,21.2811,VALID,111,VALID,1.44141,
2015-03-26, 07:59:04,VALID,919.766,VALID,0,VALID,89.255,VALID,84.8785,VALID,21.2811,VALID,107,VALID,0,
2015-03-26, 08:00:04,VALID,919.796,VALID,0,VALID,89.476,VALID,83.6967,VALID,21.3022,VALID,121,VALID,0,
2015-03-26, 08:01:04,VALID,919.779,VALID,0,VALID,88.7289,VALID,83.3743,VALID,21.2616,VALID,135,VALID,0.0632813,
2015-03-26, 08:02:04,VALID,919.781,VALID,0,VALID,89.0644,VALID,83.9115,VALID,21.3022,VALID,153,VALID,0,
2015-03-26, 08:03:04,VALID,919.791,VALID,0,VALID,88.4697,VALID,84.8785,VALID,21.3022,VALID,131,VALID,0.6625,
2015-03-26, 08:04:04,VALID,919.835,VALID,0,VALID,88.8662,VALID,85.9529,VALID,21.3006,VALID,112,VALID,0.115625,
2015-03-26, 08:05:04,VALID,919.858,VALID,0,VALID,88.546,VALID,88.2092,VALID,21.2811,VALID,130,VALID,0.0601562,
2015-03-26, 08:06:04,VALID,919.881,VALID,0,VALID,89.2473,VALID,91.1101,VALID,21.2616,VALID,128,VALID,0,
2015-03-26, 08:07:04,VALID,919.923,VALID,0,VALID,88.7594,VALID,93.9036,VALID,21.2827,VALID,142,VALID,1.64375,
2015-03-26, 08:08:04,VALID,919.933,VALID,0,VALID,89.0339,VALID,96.697,VALID,21.3022,VALID,159,VALID,0.00585938,
2015-03-26, 08:09:04,VALID,919.935,VALID,0,VALID,88.4164,VALID,98.5235,VALID,21.3022,VALID,146,VALID,1.23008,
2015-03-26, 08:10:04,VALID,919.992,VALID,0,VALID,88.7213,VALID,99.7054,VALID,21.3412,VALID,125,VALID,0,
2015-03-26, 08:11:04,VALID,920.009,VALID,0,VALID,89.4074,VALID,100.243,VALID,21.3591,VALID,126,VALID,0,
2015-03-26, 08:12:04,VALID,920.021,VALID,0,VALID,89.0949,VALID,100.135,VALID,21.3803,VALID,126,VALID,0,
2015-03-26, 08:13:04,VALID,920.066,VALID,0,VALID,89.3388,VALID,100.243,VALID,21.4177,VALID,146,VALID,0,
2015-03-26, 08:14:04,VALID,920.072,VALID,0,VALID,88.7594,VALID,99.5979,VALID,21.4567,VALID,169,VALID,0,
2015-03-26, 08:15:04,VALID,920.054,VALID,0,VALID,88.4469,VALID,99.5979,VALID,21.4567,VALID,99,VALID,0,
2015-03-26, 08:16:04,VALID,920.068,VALID,0,VALID,87.5549,VALID,99.4905,VALID,21.4567,VALID,161,VALID,0.0710938,
2015-03-26, 08:17:04,VALID,920.086,VALID,0,VALID,87.9666,VALID,100.135,VALID,21.5168,VALID,164,VALID,0,
2015-03-26, 08:18:04,VALID,920.105,VALID,0,VALID,88.2334,VALID,100.35,VALID,21.4973,VALID,141,VALID,0,
2015-03-26, 08:19:04,VALID,920.111,VALID,0,VALID,87.9056,VALID,102.499,VALID,21.4567,VALID,127,VALID,0,
2015-03-26, 08:20:04,VALID,920.148,VALID,0,VALID,88.8662,VALID,103.681,VALID,21.4567,VALID,125,VALID,0,
2015-03-26, 08:21:04,VALID,920.174,VALID,0,VALID,88.1953,VALID,102.606,VALID,21.4372,VALID,140,VALID,0.500781,
2015-03-26, 08:22:04,VALID,920.2,VALID,0,VALID,88.5384,VALID,101.747,VALID,21.4372,VALID,134,VALID,0,
2015-03-26, 08:23:04,VALID,920.185,VALID,0,VALID,88.2029,VALID,102.499,VALID,21.4388,VALID,128,VALID,0.0203125,
2015-03-26, 08:24:04,VALID,920.201,VALID,0,VALID,88.5612,VALID,104.755,VALID,21.4372,VALID,117,VALID,0.979297,
2015-03-26, 08:25:04,VALID,920.201,VALID,0,VALID,88.5231,VALID,107.763,VALID,21.4177,VALID,143,VALID,0,
2015-03-26, 08:26:04,VALID,920.163,VALID,0,VALID,88.607,VALID,111.954,VALID,21.4372,VALID,132,VALID,0,
2015-03-26, 08:27:04,VALID,920.175,VALID,0,VALID,89.0186,VALID,115.607,VALID,21.4567,VALID,135,VALID,0,
2015-03-26, 08:28:04,VALID,920.148,VALID,0,VALID,88.9195,VALID,119.045,VALID,21.4372,VALID,147,VALID,0.208984,
2015-03-26, 08:29:04,VALID,920.158,VALID,0,VALID,88.7061,VALID,122.483,VALID,21.4762,VALID,151,VALID,0,
2015-03-26, 08:30:04,VALID,920.143,VALID,0,VALID,88.0733,VALID,126.028,VALID,21.4567,VALID,143,VALID,0,
2015-03-26, 08:31:04,VALID,920.152,VALID,0,VALID,87.6617,VALID,129.144,VALID,21.4762,VALID,153,VALID,0,
2015-03-26, 08:32:04,VALID,920.148,VALID,0,VALID,87.8446,VALID,130.971,VALID,21.4957,VALID,135,VALID,0.0714844,
2015-03-26, 08:33:04,VALID,920.16,VALID,0,VALID,88.3706,VALID,128.822,VALID,21.5152,VALID,128,VALID,0,
2015-03-26, 08:34:04,VALID,920.179,VALID,0,VALID,87.8827,VALID,124.417,VALID,21.5152,VALID,136,VALID,0.803906,
2015-03-26, 08:35:04,VALID,920.192,VALID,0,VALID,87.776,VALID,117.97,VALID,21.5347,VALID,130,VALID,0.894141,
2015-03-26, 08:36:04,VALID,920.205,VALID,0,VALID,86.8231,VALID,113.458,VALID,21.5347,VALID,135,VALID,0.917188,
2015-03-26, 08:37:04,VALID,920.225,VALID,0,VALID,87.0899,VALID,110.772,VALID,21.5737,VALID,146,VALID,0.167578,
2015-03-26, 08:38:04,VALID,920.24,VALID,0,VALID,86.2208,VALID,111.739,VALID,21.5932,VALID,136,VALID,0.749609,
2015-03-26, 08:39:04,VALID,920.246,VALID,0,VALID,85.6491,VALID,115.929,VALID,21.6128,VALID,127,VALID,1.74922,
2015-03-26, 08:40:04,VALID,920.291,VALID,0,VALID,85.6262,VALID,121.086,VALID,21.6128,VALID,132,VALID,1.09648,
2015-03-26, 08:41:04,VALID,920.317,VALID,0,VALID,85.4128,VALID,124.847,VALID,21.6128,VALID,122,VALID,1.14453,
2015-03-26, 08:42:04,VALID,920.327,VALID,0,VALID,86.7926,VALID,120.334,VALID,21.6518,VALID,104,VALID,0,
2015-03-26, 08:43:04,VALID,920.435,VALID,0,VALID,87.189,VALID,115.284,VALID,21.6908,VALID,93,VALID,0,
2015-03-26, 08:44:04,VALID,920.454,VALID,0,VALID,86.8612,VALID,113.136,VALID,21.7103,VALID,138,VALID,0.636328,
2015-03-26, 08:45:04,VALID,920.442,VALID,0,VALID,85.6948,VALID,112.706,VALID,21.7103,VALID,92,VALID,2.5832,
2015-03-26, 08:46:04,VALID,920.519,VALID,0,VALID,86.1065,VALID,106.474,VALID,21.7493,VALID,33,VALID,0.373828,
2015-03-26, 08:47:04,VALID,920.569,VALID,0,VALID,86.6859,VALID,101.854,VALID,21.7883,VALID,140,VALID,0.0613281,
2015-03-26, 08:48:04,VALID,920.567,VALID,0,VALID,86.724,VALID,101.962,VALID,21.7688,VALID,122,VALID,0.0195313,
2015-03-26, 08:49:04,VALID,920.58,VALID,0,VALID,87.6007,VALID,106.367,VALID,21.7883,VALID,47,VALID,1.45938,
2015-03-26, 08:50:04,VALID,920.611,VALID,0,VALID,87.5092,VALID,119.26,VALID,21.7493,VALID,116,VALID,1.22187,
2015-03-26, 08:51:04,VALID,920.603,VALID,0,VALID,87.2043,VALID,153.963,VALID,21.7103,VALID,58,VALID,1.69609,
2015-03-26, 08:52:04,VALID,920.546,VALID,0,VALID,87.5244,VALID,182.22,VALID,21.7315,VALID,103,VALID,0.0289063,
2015-03-26, 08:53:04,VALID,920.608,VALID,0,VALID,87.7455,VALID,190.601,VALID,21.7705,VALID,75,VALID,0.09375,
2015-03-26, 08:54:04,VALID,920.586,VALID,0,VALID,87.6769,VALID,187.055,VALID,21.8095,VALID,97,VALID,0.353516,
2015-03-26, 08:55:04,VALID,920.616,VALID,0,VALID,86.5715,VALID,173.41,VALID,21.8681,VALID,86,VALID,0.594141,
2015-03-26, 08:56:04,VALID,920.611,VALID,0,VALID,85.4356,VALID,170.402,VALID,21.9266,VALID,94,VALID,0.274219,
2015-03-26, 08:57:04,VALID,920.659,VALID,0,VALID,85.6948,VALID,172.98,VALID,21.9461,VALID,110,VALID,1.00977,
2015-03-26, 08:58:04,VALID,920.636,VALID,0,VALID,84.7648,VALID,163.848,VALID,21.9444,VALID,128,VALID,0.9,
2015-03-26, 08:59:04,VALID,920.633,VALID,0,VALID,85.4585,VALID,157.938,VALID,21.9851,VALID,103,VALID,1.1543,
2015-03-26, 09:00:04,VALID,920.596,VALID,0,VALID,83.9186,VALID,153.533,VALID,21.9835,VALID,87,VALID,0.393359,
2015-03-26, 09:01:04,VALID,920.59,VALID,0,VALID,82.9428,VALID,141.285,VALID,22.0047,VALID,128,VALID,1.68633,
2015-03-26, 09:02:04,VALID,920.603,VALID,0,VALID,85.7177,VALID,129.681,VALID,22.0225,VALID,120,VALID,0.319531,
2015-03-26, 09:03:04,VALID,920.602,VALID,0,VALID,85.5881,VALID,121.301,VALID,22.0225,VALID,155,VALID,0,
2015-03-26, 09:04:04,VALID,920.602,VALID,0,VALID,85.8015,VALID,110.02,VALID,22.042,VALID,161,VALID,0.632813,
2015-03-26, 09:05:04,VALID,920.646,VALID,0,VALID,82.9885,VALID,105.937,VALID,22.0242,VALID,153,VALID,0.868359,
2015-03-26, 09:06:04,VALID,920.633,VALID,0,VALID,84.0558,VALID,106.689,VALID,22.042,VALID,134,VALID,0.00117188,
2015-03-26, 09:07:04,VALID,920.607,VALID,0,VALID,85.1002,VALID,107.441,VALID,22.042,VALID,122,VALID,1.69766,
2015-03-26, 09:08:04,VALID,920.64,VALID,0,VALID,83.3239,VALID,110.02,VALID,22.003,VALID,128,VALID,3.49336,
2015-03-26, 09:09:04,VALID,920.644,VALID,0,VALID,83.202,VALID,105.507,VALID,21.9835,VALID,124,VALID,0.0148437,
2015-03-26, 09:10:04,VALID,920.64,VALID,0,VALID,84.4522,VALID,108.193,VALID,22.003,VALID,138,VALID,0.0140625,
2015-03-26, 09:11:04,VALID,920.657,VALID,0,VALID,84.9096,VALID,125.276,VALID,21.9444,VALID,121,VALID,0.299219,
2015-03-26, 09:12:04,VALID,920.659,VALID,0,VALID,85.2222,VALID,148.806,VALID,21.9656,VALID,101,VALID,0.116797,
2015-03-26, 09:13:04,VALID,920.658,VALID,0,VALID,83.3925,VALID,158.905,VALID,21.9461,VALID,141,VALID,1.39844,
2015-03-26, 09:14:04,VALID,920.646,VALID,0,VALID,83.4612,VALID,150.847,VALID,21.964,VALID,155,VALID,0.529688,
2015-03-26, 09:15:04,VALID,920.734,VALID,0,VALID,83.8423,VALID,136.343,VALID,21.9835,VALID,139,VALID,1.23789,
2015-03-26, 09:16:04,VALID,920.717,VALID,0,VALID,83.0724,VALID,134.087,VALID,22.003,VALID,115,VALID,0.325,
2015-03-26, 09:17:04,VALID,920.725,VALID,0,VALID,81.8679,VALID,133.227,VALID,22.0615,VALID,137,VALID,1.14297,
2015-03-26, 09:18:04,VALID,920.755,VALID,0,VALID,83.1867,VALID,134.624,VALID,22.1201,VALID,137,VALID,1.82227,
2015-03-26, 09:19:04,VALID,920.796,VALID,0,VALID,81.845,VALID,135.806,VALID,22.081,VALID,115,VALID,1.49219,
2015-03-26, 09:20:04,VALID,920.741,VALID,0,VALID,82.7522,VALID,142.36,VALID,22.0615,VALID,116,VALID,1.29492,
2015-03-26, 09:21:04,VALID,920.763,VALID,0,VALID,82.31,VALID,145.368,VALID,22.0615,VALID,137,VALID,2.26211,
2015-03-26, 09:22:04,VALID,920.835,VALID,0,VALID,83.6136,VALID,139.459,VALID,22.0615,VALID,127,VALID,0.721875,
2015-03-26, 09:23:04,VALID,920.834,VALID,0,VALID,82.8208,VALID,133.012,VALID,22.042,VALID,113,VALID,0.766406,
2015-03-26, 09:24:04,VALID,920.879,VALID,0,VALID,82.9123,VALID,125.599,VALID,22.042,VALID,122,VALID,0.944141,
2015-03-26, 09:25:04,VALID,920.881,VALID,0,VALID,83.2706,VALID,117.003,VALID,22.0225,VALID,116,VALID,2.06992,
2015-03-26, 09:26:04,VALID,920.96,VALID,0,VALID,84.0405,VALID,106.367,VALID,22.042,VALID,141,VALID,1.6082,
2015-03-26, 09:27:04,VALID,920.964,VALID,0,VALID,83.5831,VALID,99.0607,VALID,22.0225,VALID,136,VALID,1.92344,
2015-03-26, 09:28:04,VALID,920.979,VALID,0,VALID,84.1473,VALID,102.714,VALID,21.9835,VALID,125,VALID,1.67695,
2015-03-26, 09:29:04,VALID,921.022,VALID,0,VALID,83.1791,VALID,107.763,VALID,21.9835,VALID,128,VALID,2.30938,
2015-03-26, 09:30:04,VALID,921.009,VALID,0,VALID,83.9186,VALID,115.284,VALID,21.964,VALID,122,VALID,1.0125,
2015-03-26, 09:31:04,VALID,921.054,VALID,0,VALID,84.1701,VALID,120.012,VALID,21.9444,VALID,117,VALID,0.831641,
2015-03-26, 09:32:04,VALID,921.04,VALID,0,VALID,84.01,VALID,120.979,VALID,21.9249,VALID,116,VALID,1.57383,
2015-03-26, 09:33:04,VALID,921.032,VALID,0,VALID,84.4293,VALID,126.351,VALID,21.9249,VALID,97,VALID,1.46133,
2015-03-26, 09:34:04,VALID,921.074,VALID,0,VALID,83.8804,VALID,132.797,VALID,21.9249,VALID,109,VALID,1.31953,
2015-03-26, 09:35:04,VALID,921.1,VALID,0,VALID,84.2997,VALID,141.178,VALID,21.9835,VALID,125,VALID,1.11133,
2015-03-26, 09:36:04,VALID,921.073,VALID,0,VALID,84.0863,VALID,153.426,VALID,21.9835,VALID,123,VALID,1.43984,
2015-03-26, 09:37:04,VALID,921.114,VALID,0,VALID,84.0329,VALID,160.947,VALID,22.003,VALID,97,VALID,0.900391,
2015-03-26, 09:38:04,VALID,921.086,VALID,0,VALID,82.8437,VALID,162.558,VALID,22.042,VALID,102,VALID,2.25039,
2015-03-26, 09:39:04,VALID,921.078,VALID,0,VALID,83.1715,VALID,163.633,VALID,22.0827,VALID,80,VALID,1.97344,
2015-03-26, 09:40:04,VALID,921.101,VALID,0,VALID,83.3621,VALID,163.633,VALID,22.1005,VALID,145,VALID,1.15664,
2015-03-26, 09:41:04,VALID,921.059,VALID,0,VALID,83.484,VALID,164.707,VALID,22.1201,VALID,112,VALID,0.721875,
2015-03-26, 09:42:04,VALID,921.08,VALID,0,VALID,81.8145,VALID,168.683,VALID,22.0989,VALID,130,VALID,2.80039,
2015-03-26, 09:43:04,VALID,921.069,VALID,0,VALID,81.6468,VALID,178.03,VALID,22.1396,VALID,97,VALID,2.26367,
2015-03-26, 09:44:04,VALID,921.035,VALID,0,VALID,81.5172,VALID,182.328,VALID,22.1591,VALID,97,VALID,0.687109,
2015-03-26, 09:45:04,VALID,921.067,VALID,0,VALID,82.5845,VALID,189.741,VALID,22.1981,VALID,99,VALID,1.94258,
2015-03-26, 09:46:04,VALID,921.035,VALID,0,VALID,82.5692,VALID,192.535,VALID,22.1981,VALID,84,VALID,1.78711,
2015-03-26, 09:47:04,VALID,921.021,VALID,0,VALID,81.5782,VALID,191.782,VALID,22.1981,VALID,53,VALID,1.69336,
2015-03-26, 09:48:04,VALID,921.027,VALID,0,VALID,82.9351,VALID,182.865,VALID,22.2371,VALID,107,VALID,2.00586,
2015-03-26, 09:49:04,VALID,921.052,VALID,0,VALID,82.4396,VALID,167.608,VALID,22.2371,VALID,117,VALID,1.02227,
2015-03-26, 09:50:04,VALID,921.026,VALID,0,VALID,82.3405,VALID,159.12,VALID,22.2762,VALID,114,VALID,1.66523,
2015-03-26, 09:51:04,VALID,921.044,VALID,0,VALID,82.028,VALID,148.484,VALID,22.2762,VALID,113,VALID,1.55625,
2015-03-26, 09:52:04,VALID,921.026,VALID,0,VALID,81.8679,VALID,136.128,VALID,22.2567,VALID,124,VALID,2.64883,
2015-03-26, 09:53:04,VALID,921.043,VALID,0,VALID,81.906,VALID,125.921,VALID,22.2159,VALID,124,VALID,0.564062,
2015-03-26, 09:54:04,VALID,921.01,VALID,0,VALID,81.7611,VALID,113.136,VALID,22.2159,VALID,122,VALID,1.44414,
2015-03-26, 09:55:04,VALID,921.001,VALID,0,VALID,82.2948,VALID,102.929,VALID,22.2176,VALID,52,VALID,2.18711,
2015-03-26, 09:56:04,VALID,920.999,VALID,0,VALID,82.7903,VALID,100.135,VALID,22.1981,VALID,128,VALID,0.434766,
2015-03-26, 09:57:04,VALID,921.01,VALID,0,VALID,82.4625,VALID,104.11,VALID,22.1574,VALID,142,VALID,0.120703,
2015-03-26, 09:58:04,VALID,920.956,VALID,0,VALID,82.2795,VALID,112.921,VALID,22.1591,VALID,62,VALID,0.421484,
2015-03-26, 09:59:04,VALID,921.022,VALID,0,VALID,82.5387,VALID,121.194,VALID,22.1396,VALID,104,VALID,0.796094,
2015-03-26, 10:00:04,VALID,921.003,VALID,0,VALID,82.5921,VALID,128.5,VALID,22.1201,VALID,124,VALID,0,
2015-03-26, 10:01:04,VALID,921.013,VALID,0,VALID,82.8894,VALID,141.822,VALID,22.1005,VALID,99,VALID,2.55469,
2015-03-26, 10:02:04,VALID,921.001,VALID,0,VALID,81.5629,VALID,155.038,VALID,22.1005,VALID,132,VALID,2.00508,
2015-03-26, 10:03:04,VALID,920.953,VALID,0,VALID,81.8221,VALID,165.997,VALID,22.1396,VALID,79,VALID,1.91797,
2015-03-26, 10:04:04,VALID,920.965,VALID,0,VALID,82.775,VALID,171.154,VALID,22.1396,VALID,104,VALID,1.31016,
2015-03-26, 10:05:04,VALID,920.927,VALID,0,VALID,82.836,VALID,176.633,VALID,22.1379,VALID,92,VALID,2.51133,
2015-03-26, 10:06:04,VALID,920.909,VALID,0,VALID,82.7522,VALID,177.6,VALID,22.1591,VALID,101,VALID,1.3582,
2015-03-26, 10:07:04,VALID,920.902,VALID,0,VALID,82.9046,VALID,179.964,VALID,22.1981,VALID,114,VALID,0.0394531,
2015-03-26, 10:08:04,VALID,920.887,VALID,0,VALID,81.7154,VALID,188.022,VALID,22.1574,VALID,94,VALID,2.98906,
2015-03-26, 10:09:04,VALID,920.837,VALID,0,VALID,82.2109,VALID,179.104,VALID,22.1769,VALID,77,VALID,0.665234,
2015-03-26, 10:10:04,VALID,920.846,VALID,0,VALID,82.8894,VALID,176.311,VALID,22.2176,VALID,101,VALID,1.73203,
2015-03-26, 10:11:04,VALID,920.851,VALID,0,VALID,82.3176,VALID,188.237,VALID,22.1769,VALID,127,VALID,2.05,
2015-03-26, 10:12:04,VALID,920.813,VALID,0,VALID,82.1576,VALID,184.799,VALID,22.2159,VALID,81,VALID,0.174219,
2015-03-26, 10:13:04,VALID,920.8,VALID,0,VALID,81.6697,VALID,184.369,VALID,22.2354,VALID,56,VALID,1.59102,
2015-03-26, 10:14:04,VALID,920.778,VALID,0,VALID,83.141,VALID,185.336,VALID,22.2762,VALID,46,VALID,1.30742,
2015-03-26, 10:15:04,VALID,920.768,VALID,0,VALID,82.5387,VALID,178.997,VALID,22.255,VALID,104,VALID,1.78125,
2015-03-26, 10:16:04,VALID,920.728,VALID,0,VALID,82.2719,VALID,179.856,VALID,22.2354,VALID,68,VALID,2.04258,
2015-03-26, 10:17:04,VALID,920.698,VALID,0,VALID,83.2401,VALID,187.915,VALID,22.2567,VALID,134,VALID,0.483203,
2015-03-26, 10:18:04,VALID,920.711,VALID,0,VALID,83.6822,VALID,178.567,VALID,22.2762,VALID,156,VALID,0,
2015-03-26, 10:19:04,VALID,920.689,VALID,0,VALID,83.0647,VALID,148.484,VALID,22.2745,VALID,124,VALID,1.27031,
2015-03-26, 10:20:04,VALID,920.714,VALID,0,VALID,83.5221,VALID,138.707,VALID,22.3135,VALID,118,VALID,0.0753906,
2015-03-26, 10:21:04,VALID,920.716,VALID,0,VALID,84.2387,VALID,156.005,VALID,22.3525,VALID,117,VALID,0,
2015-03-26, 10:22:04,VALID,920.668,VALID,0,VALID,81.9746,VALID,168.575,VALID,22.333,VALID,114,VALID,0.933984,
2015-03-26, 10:23:04,VALID,920.655,VALID,0,VALID,83.2325,VALID,157.724,VALID,22.333,VALID,145,VALID,0.341797,
2015-03-26, 10:24:04,VALID,920.692,VALID,0,VALID,83.3468,VALID,138.492,VALID,22.333,VALID,116,VALID,0.128906,
2015-03-26, 10:25:04,VALID,920.702,VALID,0,VALID,82.8132,VALID,129.681,VALID,22.3135,VALID,110,VALID,0.491797,
2015-03-26, 10:26:04,VALID,920.693,VALID,0,VALID,82.7369,VALID,127.64,VALID,22.294,VALID,112,VALID,0.38125,
2015-03-26, 10:27:04,VALID,920.685,VALID,0,VALID,82.188,VALID,122.805,VALID,22.2762,VALID,133,VALID,0.912891,
2015-03-26, 10:28:04,VALID,920.714,VALID,0,VALID,83.667,VALID,107.334,VALID,22.2567,VALID,132,VALID,0,
2015-03-26, 10:29:04,VALID,920.683,VALID,0,VALID,81.5172,VALID,103.144,VALID,22.2371,VALID,66,VALID,1.90859,
2015-03-26, 10:30:04,VALID,920.689,VALID,0,VALID,82.0584,VALID,103.358,VALID,22.2567,VALID,151,VALID,2.41719,
2015-03-26, 10:31:04,VALID,920.661,VALID,0,VALID,82.2033,VALID,98.0938,VALID,22.2176,VALID,136,VALID,1.0125,
2015-03-26, 10:32:04,VALID,920.667,VALID,0,VALID,82.8818,VALID,88.3166,VALID,22.1786,VALID,105,VALID,1.85781,
2015-03-26, 10:33:04,VALID,920.649,VALID,0,VALID,82.5387,VALID,85.4157,VALID,22.1201,VALID,63,VALID,2.53477,
2015-03-26, 10:34:04,VALID,920.612,VALID,0,VALID,82.2795,VALID,89.2836,VALID,22.081,VALID,89,VALID,3.19297,
2015-03-26, 10:35:04,VALID,920.659,VALID,0,VALID,83.0876,VALID,97.7714,VALID,22.081,VALID,56,VALID,1.51953,
2015-03-26, 10:36:04,VALID,920.683,VALID,0,VALID,82.6836,VALID,99.0607,VALID,22.0615,VALID,104,VALID,2.2293,
2015-03-26, 10:37:04,VALID,920.614,VALID,0,VALID,81.7916,VALID,92.7217,VALID,22.0225,VALID,71,VALID,0.342969,
2015-03-26, 10:38:04,VALID,920.62,VALID,0,VALID,82.2795,VALID,82.085,VALID,22.042,VALID,85,VALID,1.73906,
2015-03-26, 10:39:04,VALID,920.626,VALID,0,VALID,83.4154,VALID,83.8041,VALID,22.0437,VALID,125,VALID,1.43164,
2015-03-26, 10:40:04,VALID,920.609,VALID,0,VALID,82.0889,VALID,78.7544,VALID,22.003,VALID,163,VALID,0,
2015-03-26, 10:41:04,VALID,920.574,VALID,0,VALID,82.0051,VALID,66.9358,VALID,22.0225,VALID,99,VALID,0,
2015-03-26, 10:42:04,VALID,920.588,VALID,0,VALID,82.3329,VALID,64.787,VALID,22.0403,VALID,83,VALID,0.149609,
2015-03-26, 10:43:04,VALID,920.56,VALID,0,VALID,82.3329,VALID,71.126,VALID,22.0208,VALID,170,VALID,2.40508,
2015-03-26, 10:44:04,VALID,920.485,VALID,0,VALID,82.9885,VALID,75.9609,VALID,22.0013,VALID,54,VALID,2.9,
2015-03-26, 10:45:04,VALID,920.561,VALID,0,VALID,83.202,VALID,86.9199,VALID,22.0225,VALID,101,VALID,0.775,
2015-03-26, 10:46:04,VALID,920.553,VALID,0,VALID,83.2706,VALID,84.986,VALID,21.9428,VALID,142,VALID,2.66367,
2015-03-26, 10:47:04,VALID,920.529,VALID,0,VALID,82.8437,VALID,73.3823,VALID,21.9038,VALID,179,VALID,0.644531,
2015-03-26, 10:48:04,VALID,920.531,VALID,0,VALID,83.5603,VALID,65.5391,VALID,21.9038,VALID,143,VALID,0.220313,
2015-03-26, 10:49:04,VALID,920.548,VALID,0,VALID,84.01,VALID,62.2084,VALID,21.9038,VALID,137,VALID,0.403516,
2015-03-26, 10:50:04,VALID,920.574,VALID,0,VALID,83.5603,VALID,63.1754,VALID,21.8664,VALID,114,VALID,0.00585938,
2015-03-26, 10:51:04,VALID,920.568,VALID,0,VALID,84.0787,VALID,63.1754,VALID,21.8257,VALID,141,VALID,2.10859,
2015-03-26, 10:52:04,VALID,920.538,VALID,0,VALID,84.1091,VALID,59.3075,VALID,21.8079,VALID,199,VALID,0.0289063,
2015-03-26, 10:53:04,VALID,920.548,VALID,0,VALID,83.7585,VALID,59.0926,VALID,21.8062,VALID,158,VALID,0.00546875,
2015-03-26, 10:54:04,VALID,920.572,VALID,0,VALID,84.0634,VALID,60.0596,VALID,21.8062,VALID,114,VALID,0.0851562,
2015-03-26, 10:55:04,VALID,920.558,VALID,0,VALID,84.4827,VALID,63.068,VALID,21.7672,VALID,125,VALID,0.431641,
2015-03-26, 10:56:04,VALID,920.532,VALID,0,VALID,85.1154,VALID,70.4814,VALID,21.7493,VALID,118,VALID,0.682422,
2015-03-26, 10:57:04,VALID,920.551,VALID,0,VALID,85.6872,VALID,83.2669,VALID,21.7087,VALID,138,VALID,0.484766,
2015-03-26, 10:58:04,VALID,920.514,VALID,0,VALID,84.9401,VALID,89.9282,VALID,21.6696,VALID,119,VALID,2.65352,
2015-03-26, 10:59:04,VALID,920.488,VALID,0,VALID,84.9935,VALID,86.9199,VALID,21.6908,VALID,145,VALID,1.36836,
2015-03-26, 11:00:04,VALID,920.51,VALID,0,VALID,84.841,VALID,86.2752,VALID,21.7298,VALID,151,VALID,0.983203,
2015-03-26, 11:01:04,VALID,920.445,VALID,0,VALID,84.0329,VALID,82.5148,VALID,21.7087,VALID,147,VALID,3.46523,
2015-03-26, 11:02:04,VALID,920.416,VALID,0,VALID,84.3836,VALID,81.8702,VALID,21.7688,VALID,165,VALID,0.538672,
2015-03-26, 11:03:04,VALID,920.454,VALID,0,VALID,85.367,VALID,77.7874,VALID,21.7672,VALID,134,VALID,0.519141,
2015-03-26, 11:04:04,VALID,920.449,VALID,0,VALID,84.4141,VALID,79.2916,VALID,21.7477,VALID,129,VALID,2.08672,
2015-03-26, 11:05:04,VALID,920.413,VALID,0,VALID,84.5284,VALID,85.3083,VALID,21.7477,VALID,126,VALID,0.657031,
2015-03-26, 11:06:04,VALID,920.402,VALID,0,VALID,84.8944,VALID,86.8125,VALID,21.7493,VALID,121,VALID,0.957031,
2015-03-26, 11:07:04,VALID,920.422,VALID,0,VALID,84.9935,VALID,88.8538,VALID,21.7087,VALID,130,VALID,2.02969,
2015-03-26, 11:08:04,VALID,920.395,VALID,0,VALID,85.0621,VALID,93.4738,VALID,21.7282,VALID,94,VALID,0.379297,
2015-03-26, 11:09:04,VALID,920.342,VALID,0,VALID,84.6199,VALID,93.4738,VALID,21.7477,VALID,188,VALID,2.10703,
2015-03-26, 11:10:04,VALID,920.347,VALID,0,VALID,84.7876,VALID,89.1762,VALID,21.8079,VALID,99,VALID,0.440625,
2015-03-26, 11:11:04,VALID,920.342,VALID,0,VALID,84.6657,VALID,87.3497,VALID,21.7883,VALID,125,VALID,1.09063,
2015-03-26, 11:12:04,VALID,920.33,VALID,0,VALID,84.1091,VALID,91.7547,VALID,21.7688,VALID,124,VALID,1.64531,
2015-03-26, 11:13:04,VALID,920.312,VALID,0,VALID,84.2769,VALID,98.7384,VALID,21.7493,VALID,133,VALID,2.50156,
2015-03-26, 11:14:04,VALID,920.283,VALID,0,VALID,84.5208,VALID,96.697,VALID,21.7298,VALID,135,VALID,3.11328,
2015-03-26, 11:15:04,VALID,920.313,VALID,0,VALID,84.7114,VALID,93.9036,VALID,21.6908,VALID,130,VALID,2.70078,
2015-03-26, 11:16:04,VALID,920.267,VALID,0,VALID,85.0849,VALID,86.3827,VALID,21.6696,VALID,132,VALID,2.62148,
2015-03-26, 11:17:04,VALID,920.279,VALID,0,VALID,85.1993,VALID,79.2916,VALID,21.6501,VALID,127,VALID,1.2168,
2015-03-26, 11:18:04,VALID,920.28,VALID,0,VALID,85.5652,VALID,82.8371,VALID,21.6306,VALID,153,VALID,1.4832,